MONITOR-3 (RS58S)

Last updated on Mon Sep 07 2026 00:03:13 GMT+0000 (Coordinated Universal Time)

1 57180U 23091Q 26249.63362606 .00006596 00000+0 23472-3 0 9997 2 57180 97.5009 313.7268 0011661 164.6954 195.4641 15.29248796176730
UTC large
Height (km)
Speed (km/s)
/
Latitude / Longitude
Inclination (degrees)
Orbital Period (minutes)
Azimuth
Elevation
Range (km)
Doppler Factor

Next 0 passes for location: London (51.5072 / 0.1276)

No passes found over London.
MONITOR-3 (RS58S)